Погода Фурманово

Погода Фурманово : погода сейчас, прогноз погоды и архив. Всё, что Вы хотите узнать о погоде Фурманово!

Поиск расширенной информации на нашем сайте:

Полезная информация:

Другие новости

Новости СМИ2

Главная страница сайта

Новости сайта

03.07.2017

Напоминаем, что на нашем специализированном сайте Метеоцентр.Азия вы можете получить высокодетализированные автоматические прогнозы погоды по пунктам России, СНГ и мира в авиационном формате (включающие направление и скорость ветра, видимость, явления погоды, количество и форму облачности, нижнюю и верхнюю границу облачности).

Рекомендуем:

Погода Фурманово - сегодня

Время (UTC), дата Ветер
(°,м/с) 
Видим.   Явления Облачность Т
(°С)
Тd
(°С)
f(%) Тe
(°С)
Pmin
(гПа)
dP
(гПа)
Po
(мм)
O2
(г/м3)
Тmin Tmax R s Состояние
почвы
18 17.03.19 070 (В) н/о  слаб. снег{дождь}  10/10 300 м 
[Ns]
+0.2 +0.2 100 -2  1017.1  1.7  762  307    +2.3     
21 17.03.19 070 (В) н/о  слаб. снег  10/10 300 м 
[Ns]
-0.1 -0.1 100 -2  1017.3  0.2  762  307           
00 18.03.19 050 (СВ) н/о  дымка{снег}  10/10 300 м 
[Ns]
-0.4 -0.4 100 -2  1018  0.7  763  308           
03 18.03.19 050 (СВ) 20000 м    9/9 600 м 
[Sc]
-0.8 -0.9 99 -3  1019  764  309        мокрый или
старый снег
50-90% 
06 18.03.19 050 (СВ) 20000 м    9/4 600 м средняя 
[Sc|Ac trans]
-0.2 -0.2 100 -1  1021.2  2.2  765  309  -0.8       
09 18.03.19 070 (В) 20000 м    8/8 600 м кучево-дожд. 
[Cb cap]
+0.9 +0.9 100 -2  1022.1  0.9  766  307           
12 18.03.19 070 (В) 20000 м    9/9 600 м кучево-дожд. 
[Cb cap]
+0.4 +0.1 98 -3  1023.3  1.2  767  308           
15 18.03.19 050 (СВ) 20000 м    10/10 600 м кучево-дожд. 
[Cb cap]
-0.4 -1 96 -3  1024.5  1.2  768  310    +1.3       
18 18.03.19 020 (С) н/о    ясно 
-1.4 -1.4 100 -3  1025.1  0.6  768  311    +1.3       
21 18.03.19 020 (С) н/о    ясно 
-2.6 -2.6 100 -5  1025.6  0.5  768  313           
00 19.03.19 020 (С) н/о    ясно 
-3.3 -3.3 100 -4  1025.7  0.1  769  314           
03 19.03.19 020 (С) 20000 м    3/0 средняя 
[Ac lent]
-3.7 -3.7 100 -5  1026.7  769  315        мокрый или
старый снег
10-40% 
06 19.03.19 040 (СВ) 20000 м    ясно 
-0.6 -1.8 92 -3  1027.7  770  311  -3.7         
09 19.03.19 050 (СВ) 20000 м    3/3 1000 м 
[Cu med, cong]
+2.5 -0.9 78 1027.5  -0.2  770  308           
12 19.03.19 020 (С) 20000 м    4/4 1000 м 
[Cu med, cong]
+3.3 +0 79 +1  1027.1  -0.4  770  306           
15 19.03.19 020 (С) 20000 м    ясно 
+1 -0.7 88 -1  1028  0.9  770  309    +3.8       
18 19.03.19 050 (СВ) н/о    ясно 
-1.2 -2.4 92 -3  1028.3  0.3  770  312    +3.8       
21 19.03.19 050 (СВ) н/о    ясно 
-2.1 -3.3 91 -4  1027.6  -0.7  770  313           
00 20.03.19 020 (С) н/о    ясно 
-3.2 -3.2 100 -5  1027  -0.6  770  314           
03 20.03.19 360 (С) 4000 м  дымка  ясно 
-4.1 -4.1 100 -5  1027.2  0.2  770  315           
06 20.03.19 020 (С) 20000 м    ясно 
+0.2 -0.9 92 -2  1027  -0.2  770  310  -4.2         
09 20.03.19 050 (СВ) 20000 м    ясно 
+4.8 +0.3 73 +3  1026.1  -0.9  769  304           
12 20.03.19 050 (СВ) 20000 м    ясно 
+6.1 +1 70 +5  1025.1  -1  768  303           
15 20.03.19 050 (СВ) 20000 м    ясно 
+2.1 +0.2 87 +1  1025.1  768  307    +6.2       
18 20.03.19 020 (С) н/о    ясно 
-1.1 -1.1 100 -2  1024.9  -0.2  768  311    +6.2       
Время (UTC), дата Ветер
(°,м/с) 
Видим.   Явления Облачность Т
(°С)
Тd
(°С)
f(%) Тe
(°С)
Pmin
(гПа)
dP
(гПа)
Po
(мм)
O2
(г/м3)
Тmin Tmax R s Состояние
почвы

Для получения пояснительной информации подведите курсор к названию столбца.

ПОГОДА Фурманово - архив

Всё, что Вы хотите узнать о погоде Фурманово - удобно и подробно!

Выберите нужную дату (начиная с 1 января 2018* года) и нажмите кнопку "Найти".
Будут отображены архивные сводки погоды по пункту Фурманово, начиная с указанной даты.


Отображать данные в формате CSV (для использования в таблицах Excel)


Внимание! Наш архив погоды предназначен исключительно для личного некоммерческого использования в познавательных целях. Если Вам необходимы официальные справки о состоянии погоды (для производственных, юридических, коммерческих и т.п. целей), обращайтесь в органы Росгидромета.

*Примечание: данная дата относится к архиву по метеостанциям СССР (Россия, СНГ, Балтия).
Архив по метеостанциям Зарубежной Европы и Азии (кроме Китая) хранится 10 дней, по другим регионам земного шара (Китай, Африка, Америка, Австралия, Океания) - 1 день.

Фурманово - район местоположения метеостанции


Название, широта, долгота, высота метеостанции:
Фурманово 49.7°ш. 49.5°д. 10 м над ур. моря [Казахстан]

Дополнительная информация

В oтличие oт бoльшинства пoгoдных сайтoв мы публикуем пoдрoбную метеoинфoрмацию в детальнoм прoфессиoнальнoм фoрмате.

Характеристики температуры и влажнoсти вoздуха измеряются на высoте 2 м в тени вдали oт зданий и деревьев.
Скoрoсть ветра измеряется на высoте 10 м (на урoвне рoста челoвека скoрoсть ветра ниже в 1.5-2 раза). Если метеoстанция нахoдится в гoрoде или в лесу, тo скoрoсть ветра занижена на 2-4 м/с пo сравнению с oткрытым местoм. Скoрoсть ветра над акватoриями крупных рек и oзёр, а также на вершинах хoлмoв на 2-5 м/с выше, чем в oбычных услoвиях.
Атмoсфернoе давление в разных тoчках местнoсти мoжет значительнo oтличаться oт давления на метеoстанции, в зависимoсти oт услoвий рельефа (при пoдъёме на 10 м давление пoнижается примернo на 1 мм рт.ст.).